contact:dominique.lefevre@mio.osupytheas.fr, maurice.libes@osupytheas.fr, didier.mallarino@osupytheas.fr
Project:EMSO http://www.emso-fr.org/EMSO-France
Depth: 2436.0 m
Title:EMSO Ligure Ouest : Data MII capteur MICROCAT
DateTime_Computer,Latitude,Longitude,Temperature,Conductivity,Pressure,DateTime_Instrument
DateTime_Computer,Latitude,Longitude,degC,S m-1,dbar,DateTime_Instrument
2022-11-22T00:02:42Z,42.805,6.029,13.3010,4.60053,2470.53,2022-11-22T02:04:40Z
2022-11-22T00:05:45Z,42.805,6.029,13.3005,4.60061,2470.544,2022-11-22T02:07:43Z
2022-11-22T00:08:48Z,42.805,6.029,13.3006,4.60057,2470.53,2022-11-22T02:10:47Z
2022-11-22T00:11:51Z,42.805,6.029,13.3009,4.60052,2470.567,2022-11-22T02:13:50Z
2022-11-22T00:14:54Z,42.805,6.029,13.3009,4.60054,2470.52,2022-11-22T02:16:53Z
2022-11-22T00:17:57Z,42.805,6.029,13.3004,4.60054,2470.553,2022-11-22T02:19:56Z
2022-11-22T00:21:00Z,42.805,6.029,13.3008,4.60057,2470.553,2022-11-22T02:22:59Z
2022-11-22T00:24:03Z,42.805,6.029,13.3005,4.60056,2470.553,2022-11-22T02:26:02Z
2022-11-22T00:27:06Z,42.805,6.029,13.3005,4.60055,2470.53,2022-11-22T02:29:05Z
2022-11-22T00:30:09Z,42.805,6.029,13.3004,4.60055,2470.52,2022-11-22T02:32:08Z
2022-11-22T00:33:12Z,42.805,6.029,13.3009,4.60058,2470.507,2022-11-22T02:35:11Z
2022-11-22T00:36:16Z,42.805,6.029,13.3013,4.60057,2470.53,2022-11-22T02:38:14Z
2022-11-22T00:39:19Z,42.805,6.029,13.3012,4.60054,2470.544,2022-11-22T02:41:17Z
2022-11-22T00:42:22Z,42.805,6.029,13.3009,4.60057,2470.53,2022-11-22T02:44:20Z
2022-11-22T00:45:25Z,42.805,6.029,13.3006,4.60057,2470.53,2022-11-22T02:47:24Z
2022-11-22T00:48:28Z,42.805,6.029,13.3010,4.60058,2470.52,2022-11-22T02:50:27Z
2022-11-22T00:51:31Z,42.805,6.029,13.3008,4.60053,2470.53,2022-11-22T02:53:30Z
2022-11-22T00:54:34Z,42.805,6.029,13.3008,4.60054,2470.53,2022-11-22T02:56:33Z
2022-11-22T00:57:37Z,42.805,6.029,13.3005,4.60058,2470.507,2022-11-22T02:59:36Z
2022-11-22T01:00:40Z,42.805,6.029,13.3010,4.60056,2470.52,2022-11-22T03:02:39Z
2022-11-22T01:03:43Z,42.805,6.029,13.3006,4.60054,2470.53,2022-11-22T03:05:42Z
2022-11-22T01:06:46Z,42.805,6.029,13.3006,4.60055,2470.567,2022-11-22T03:08:45Z
2022-11-22T01:09:49Z,42.805,6.029,13.3005,4.60054,2470.53,2022-11-22T03:11:48Z
2022-11-22T01:12:52Z,42.805,6.029,13.3009,4.60056,2470.53,2022-11-22T03:14:51Z
2022-11-22T01:15:56Z,42.805,6.029,13.3009,4.60054,2470.507,2022-11-22T03:17:54Z
2022-11-22T01:18:59Z,42.805,6.029,13.3007,4.60052,2470.577,2022-11-22T03:20:57Z
2022-11-22T01:22:02Z,42.805,6.029,13.3009,4.60057,2470.553,2022-11-22T03:24:00Z
2022-11-22T01:25:05Z,42.805,6.029,13.3008,4.60053,2470.53,2022-11-22T03:27:04Z
2022-11-22T01:28:08Z,42.805,6.029,13.3008,4.60057,2470.577,2022-11-22T03:30:07Z
2022-11-22T01:31:11Z,42.805,6.029,13.3009,4.60057,2470.553,2022-11-22T03:33:10Z
2022-11-22T01:34:14Z,42.805,6.029,13.3007,4.60057,2470.53,2022-11-22T03:36:13Z
2022-11-22T01:37:17Z,42.805,6.029,13.3006,4.60062,2470.53,2022-11-22T03:39:16Z
2022-11-22T01:40:20Z,42.805,6.029,13.3005,4.60055,2470.553,2022-11-22T03:42:19Z
2022-11-22T01:43:23Z,42.805,6.029,13.3006,4.60056,2470.567,2022-11-22T03:45:22Z
2022-11-22T01:46:26Z,42.805,6.029,13.3010,4.60058,2470.553,2022-11-22T03:48:25Z
2022-11-22T01:49:29Z,42.805,6.029,13.3006,4.60056,2470.614,2022-11-22T03:51:28Z
2022-11-22T01:52:33Z,42.805,6.029,13.3007,4.60055,2470.553,2022-11-22T03:54:31Z
2022-11-22T01:55:36Z,42.805,6.029,13.3011,4.60058,2470.553,2022-11-22T03:57:34Z
2022-11-22T01:58:39Z,42.805,6.029,13.3008,4.60059,2470.553,2022-11-22T04:00:37Z
2022-11-22T02:01:42Z,42.805,6.029,13.3006,4.60061,2470.591,2022-11-22T04:03:40Z
2022-11-22T02:04:45Z,42.805,6.029,13.3007,4.60054,2470.577,2022-11-22T04:06:44Z
2022-11-22T02:07:48Z,42.805,6.029,13.3009,4.60055,2470.553,2022-11-22T04:09:47Z
2022-11-22T02:10:51Z,42.805,6.029,13.3006,4.60054,2470.591,2022-11-22T04:12:50Z
2022-11-22T02:13:54Z,42.805,6.029,13.3009,4.60052,2470.553,2022-11-22T04:15:53Z
2022-11-22T02:16:57Z,42.805,6.029,13.3009,4.60061,2470.553,2022-11-22T04:18:56Z
2022-11-22T02:20:00Z,42.805,6.029,13.3009,4.60055,2470.577,2022-11-22T04:21:59Z
2022-11-22T02:23:03Z,42.805,6.029,13.3006,4.60056,2470.577,2022-11-22T04:25:02Z
2022-11-22T02:26:06Z,42.805,6.029,13.3008,4.60057,2470.567,2022-11-22T04:28:05Z
2022-11-22T02:29:09Z,42.805,6.029,13.3011,4.60061,2470.6,2022-11-22T04:31:08Z
2022-11-22T02:32:12Z,42.805,6.029,13.3013,4.60060,2470.6,2022-11-22T04:34:11Z
2022-11-22T02:35:16Z,42.805,6.029,13.3008,4.60054,2470.553,2022-11-22T04:37:14Z
2022-11-22T02:38:19Z,42.805,6.029,13.3014,4.60057,2470.6,2022-11-22T04:40:17Z
2022-11-22T02:41:22Z,42.805,6.029,13.3006,4.60053,2470.614,2022-11-22T04:43:20Z
2022-11-22T02:44:25Z,42.805,6.029,13.3009,4.60058,2470.6,2022-11-22T04:46:24Z
2022-11-22T02:47:28Z,42.805,6.029,13.3006,4.60057,2470.577,2022-11-22T04:49:27Z
2022-11-22T02:50:31Z,42.805,6.029,13.3009,4.60062,2470.6,2022-11-22T04:52:30Z
2022-11-22T02:53:34Z,42.805,6.029,13.3004,4.60055,2470.614,2022-11-22T04:55:33Z
2022-11-22T02:56:37Z,42.805,6.029,13.3006,4.60061,2470.624,2022-11-22T04:58:36Z
2022-11-22T02:59:40Z,42.805,6.029,13.3006,4.60059,2470.637,2022-11-22T05:01:39Z
2022-11-22T03:02:43Z,42.805,6.029,13.3009,4.60060,2470.6,2022-11-22T05:04:42Z
2022-11-22T03:05:46Z,42.805,6.029,13.3007,4.60059,2470.6,2022-11-22T05:07:45Z
2022-11-22T03:08:49Z,42.805,6.029,13.3010,4.60056,2470.6,2022-11-22T05:10:48Z
2022-11-22T03:11:53Z,42.805,6.029,13.3008,4.60060,2470.6,2022-11-22T05:13:51Z
2022-11-22T03:14:56Z,42.805,6.029,13.3009,4.60056,2470.646,2022-11-22T05:16:54Z
2022-11-22T03:17:59Z,42.805,6.029,13.3009,4.60058,2470.624,2022-11-22T05:19:57Z
2022-11-22T03:21:02Z,42.805,6.029,13.3009,4.60060,2470.646,2022-11-22T05:23:00Z
2022-11-22T03:24:05Z,42.805,6.029,13.3010,4.60056,2470.637,2022-11-22T05:26:04Z
2022-11-22T03:27:08Z,42.805,6.029,13.3003,4.60059,2470.646,2022-11-22T05:29:07Z
2022-11-22T03:30:11Z,42.805,6.029,13.3009,4.60057,2470.646,2022-11-22T05:32:10Z
2022-11-22T03:33:14Z,42.805,6.029,13.3007,4.60057,2470.646,2022-11-22T05:35:13Z
2022-11-22T03:36:17Z,42.805,6.029,13.3008,4.60057,2470.637,2022-11-22T05:38:16Z
2022-11-22T03:39:20Z,42.805,6.029,13.3009,4.60056,2470.646,2022-11-22T05:41:19Z
2022-11-22T03:42:23Z,42.805,6.029,13.3009,4.60059,2470.661,2022-11-22T05:44:22Z
2022-11-22T03:45:26Z,42.805,6.029,13.3009,4.60062,2470.67,2022-11-22T05:47:25Z
2022-11-22T03:48:29Z,42.805,6.029,13.3011,4.60059,2470.67,2022-11-22T05:50:28Z
2022-11-22T03:51:33Z,42.805,6.029,13.3008,4.60060,2470.646,2022-11-22T05:53:31Z
2022-11-22T03:54:36Z,42.805,6.029,13.3004,4.60058,2470.684,2022-11-22T05:56:34Z
2022-11-22T03:57:39Z,42.805,6.029,13.3007,4.60056,2470.67,2022-11-22T05:59:37Z
2022-11-22T04:00:42Z,42.805,6.029,13.3009,4.60055,2470.707,2022-11-22T06:02:41Z
2022-11-22T04:03:45Z,42.805,6.029,13.3011,4.60062,2470.693,2022-11-22T06:05:44Z
2022-11-22T04:06:48Z,42.805,6.029,13.3004,4.60059,2470.67,2022-11-22T06:08:47Z
2022-11-22T04:09:51Z,42.805,6.029,13.3011,4.60060,2470.693,2022-11-22T06:11:50Z
2022-11-22T04:12:54Z,42.805,6.029,13.3012,4.60059,2470.74,2022-11-22T06:14:53Z
2022-11-22T04:15:57Z,42.805,6.029,13.3011,4.60062,2470.693,2022-11-22T06:17:56Z
2022-11-22T04:19:00Z,42.805,6.029,13.3006,4.60063,2470.693,2022-11-22T06:20:59Z
2022-11-22T04:22:03Z,42.805,6.029,13.3009,4.60060,2470.707,2022-11-22T06:24:02Z
2022-11-22T04:25:06Z,42.805,6.029,13.3006,4.60057,2470.67,2022-11-22T06:27:05Z
2022-11-22T04:28:09Z,42.805,6.029,13.3006,4.60057,2470.693,2022-11-22T06:30:08Z
2022-11-22T04:31:13Z,42.805,6.029,13.3006,4.60057,2470.707,2022-11-22T06:33:11Z
2022-11-22T04:34:16Z,42.805,6.029,13.3009,4.60057,2470.717,2022-11-22T06:36:14Z
2022-11-22T04:37:19Z,42.805,6.029,13.3008,4.60059,2470.693,2022-11-22T06:39:17Z
2022-11-22T04:40:22Z,42.805,6.029,13.3008,4.60057,2470.73,2022-11-22T06:42:21Z
2022-11-22T04:43:25Z,42.805,6.029,13.3005,4.60060,2470.693,2022-11-22T06:45:24Z
2022-11-22T04:46:28Z,42.805,6.029,13.3008,4.60059,2470.693,2022-11-22T06:48:27Z
2022-11-22T04:49:31Z,42.805,6.029,13.3003,4.60057,2470.693,2022-11-22T06:51:30Z
2022-11-22T04:52:34Z,42.805,6.029,13.3005,4.60058,2470.73,2022-11-22T06:54:33Z
2022-11-22T04:55:37Z,42.805,6.029,13.3008,4.60058,2470.693,2022-11-22T06:57:36Z
2022-11-22T04:58:40Z,42.805,6.029,13.3007,4.60058,2470.707,2022-11-22T07:00:39Z
2022-11-22T05:01:43Z,42.805,6.029,13.3008,4.60057,2470.73,2022-11-22T07:03:42Z
2022-11-22T05:04:46Z,42.805,6.029,13.3008,4.60056,2470.754,2022-11-22T07:06:45Z
2022-11-22T05:07:49Z,42.805,6.029,13.3004,4.60060,2470.693,2022-11-22T07:09:48Z
2022-11-22T05:10:53Z,42.805,6.029,13.3008,4.60057,2470.754,2022-11-22T07:12:51Z
2022-11-22T05:13:56Z,42.805,6.029,13.3008,4.60058,2470.717,2022-11-22T07:15:54Z
2022-11-22T05:16:59Z,42.805,6.029,13.3008,4.60057,2470.684,2022-11-22T07:18:57Z
2022-11-22T05:20:02Z,42.805,6.029,13.3007,4.60057,2470.717,2022-11-22T07:22:01Z
2022-11-22T05:23:05Z,42.805,6.029,13.3006,4.60057,2470.707,2022-11-22T07:25:04Z
2022-11-22T05:26:08Z,42.805,6.029,13.3008,4.60057,2470.717,2022-11-22T07:28:07Z
2022-11-22T05:29:11Z,42.805,6.029,13.3006,4.60057,2470.717,2022-11-22T07:31:10Z
2022-11-22T05:32:14Z,42.805,6.029,13.3011,4.60057,2470.73,2022-11-22T07:34:13Z
2022-11-22T05:35:17Z,42.805,6.029,13.3007,4.60057,2470.754,2022-11-22T07:37:16Z
2022-11-22T05:38:20Z,42.805,6.029,13.3010,4.60057,2470.693,2022-11-22T07:40:19Z
2022-11-22T05:41:23Z,42.805,6.029,13.3006,4.60058,2470.73,2022-11-22T07:43:22Z
2022-11-22T05:44:26Z,42.805,6.029,13.3006,4.60057,2470.74,2022-11-22T07:46:25Z
2022-11-22T05:47:29Z,42.805,6.029,13.3009,4.60058,2470.707,2022-11-22T07:49:28Z
2022-11-22T05:50:33Z,42.805,6.029,13.3006,4.60058,2470.754,2022-11-22T07:52:31Z
2022-11-22T05:53:36Z,42.805,6.029,13.3010,4.60055,2470.717,2022-11-22T07:55:34Z
2022-11-22T05:56:39Z,42.805,6.029,13.3008,4.60062,2470.717,2022-11-22T07:58:37Z
2022-11-22T05:59:42Z,42.805,6.029,13.3009,4.60057,2470.74,2022-11-22T08:01:41Z
2022-11-22T06:02:45Z,42.805,6.029,13.3011,4.60057,2470.74,2022-11-22T08:04:44Z
2022-11-22T06:05:48Z,42.805,6.029,13.3009,4.60059,2470.754,2022-11-22T08:07:47Z
2022-11-22T06:08:51Z,42.805,6.029,13.3011,4.60058,2470.717,2022-11-22T08:10:50Z
2022-11-22T06:11:54Z,42.805,6.029,13.3009,4.60058,2470.74,2022-11-22T08:13:53Z
2022-11-22T06:14:57Z,42.805,6.029,13.3007,4.60062,2470.763,2022-11-22T08:16:56Z
2022-11-22T06:18:00Z,42.805,6.029,13.3008,4.60055,2470.717,2022-11-22T08:19:59Z
2022-11-22T06:21:03Z,42.805,6.029,13.3007,4.60059,2470.717,2022-11-22T08:23:02Z
2022-11-22T06:24:06Z,42.805,6.029,13.3008,4.60057,2470.74,2022-11-22T08:26:05Z
2022-11-22T06:27:09Z,42.805,6.029,13.3009,4.60061,2470.754,2022-11-22T08:29:08Z
2022-11-22T06:30:13Z,42.805,6.029,13.3008,4.60056,2470.73,2022-11-22T08:32:11Z
2022-11-22T06:33:16Z,42.805,6.029,13.3011,4.60059,2470.74,2022-11-22T08:35:14Z
2022-11-22T06:36:19Z,42.805,6.029,13.3011,4.60058,2470.74,2022-11-22T08:38:17Z
2022-11-22T06:39:22Z,42.805,6.029,13.3009,4.60059,2470.763,2022-11-22T08:41:21Z
2022-11-22T06:42:25Z,42.805,6.029,13.3010,4.60059,2470.74,2022-11-22T08:44:24Z
2022-11-22T06:45:28Z,42.805,6.029,13.3009,4.60055,2470.763,2022-11-22T08:47:27Z
2022-11-22T06:48:31Z,42.805,6.029,13.3006,4.60057,2470.754,2022-11-22T08:50:30Z
2022-11-22T06:51:34Z,42.805,6.029,13.3008,4.60057,2470.74,2022-11-22T08:53:33Z
2022-11-22T06:54:37Z,42.805,6.029,13.3011,4.60057,2470.703,2022-11-22T08:56:36Z
2022-11-22T06:57:40Z,42.805,6.029,13.3010,4.60055,2470.717,2022-11-22T08:59:39Z
2022-11-22T07:00:43Z,42.805,6.029,13.3009,4.60058,2470.754,2022-11-22T09:02:42Z
2022-11-22T07:03:46Z,42.805,6.029,13.3006,4.60059,2470.67,2022-11-22T09:05:45Z
2022-11-22T07:06:50Z,42.805,6.029,13.3009,4.60057,2470.717,2022-11-22T09:08:48Z
2022-11-22T07:09:53Z,42.805,6.029,13.3011,4.60059,2470.693,2022-11-22T09:11:51Z
2022-11-22T07:12:56Z,42.805,6.029,13.3009,4.60059,2470.693,2022-11-22T09:14:54Z
2022-11-22T07:15:59Z,42.805,6.029,13.3010,4.60062,2470.754,2022-11-22T09:17:58Z
2022-11-22T07:19:02Z,42.805,6.029,13.3008,4.60062,2470.717,2022-11-22T09:21:01Z
2022-11-22T07:22:05Z,42.805,6.029,13.3010,4.60061,2470.74,2022-11-22T09:24:04Z
2022-11-22T07:25:08Z,42.805,6.029,13.3005,4.60059,2470.693,2022-11-22T09:27:07Z
2022-11-22T07:28:11Z,42.805,6.029,13.3011,4.60059,2470.717,2022-11-22T09:30:10Z
2022-11-22T07:31:14Z,42.805,6.029,13.3008,4.60056,2470.73,2022-11-22T09:33:13Z
2022-11-22T07:34:17Z,42.805,6.029,13.3006,4.60063,2470.717,2022-11-22T09:36:16Z
2022-11-22T07:37:20Z,42.805,6.029,13.3010,4.60056,2470.717,2022-11-22T09:39:19Z
2022-11-22T07:40:23Z,42.805,6.029,13.3009,4.60056,2470.717,2022-11-22T09:42:22Z
2022-11-22T07:43:26Z,42.805,6.029,13.3010,4.60058,2470.717,2022-11-22T09:45:25Z
2022-11-22T07:46:30Z,42.805,6.029,13.3011,4.60058,2470.74,2022-11-22T09:48:28Z
2022-11-22T07:49:33Z,42.805,6.029,13.3009,4.60061,2470.74,2022-11-22T09:51:31Z
2022-11-22T07:52:36Z,42.805,6.029,13.3009,4.60058,2470.67,2022-11-22T09:54:34Z
2022-11-22T07:55:39Z,42.805,6.029,13.3011,4.60058,2470.693,2022-11-22T09:57:38Z
2022-11-22T07:58:42Z,42.805,6.029,13.3006,4.60057,2470.656,2022-11-22T10:00:41Z
2022-11-22T08:01:45Z,42.805,6.029,13.3011,4.60057,2470.693,2022-11-22T10:03:44Z
2022-11-22T08:04:48Z,42.805,6.029,13.3009,4.60056,2470.646,2022-11-22T10:06:47Z
2022-11-22T08:07:51Z,42.805,6.029,13.3011,4.60059,2470.693,2022-11-22T10:09:50Z
2022-11-22T08:10:54Z,42.805,6.029,13.3006,4.60059,2470.693,2022-11-22T10:12:53Z
2022-11-22T08:13:57Z,42.805,6.029,13.3011,4.60056,2470.717,2022-11-22T10:15:56Z
2022-11-22T08:17:00Z,42.805,6.029,13.3007,4.60059,2470.693,2022-11-22T10:18:59Z
2022-11-22T08:20:03Z,42.805,6.029,13.3011,4.60060,2470.684,2022-11-22T10:22:02Z
2022-11-22T08:23:06Z,42.805,6.029,13.3011,4.60057,2470.684,2022-11-22T10:25:05Z
2022-11-22T08:26:10Z,42.805,6.029,13.3009,4.60057,2470.693,2022-11-22T10:28:08Z
2022-11-22T08:29:13Z,42.805,6.029,13.3007,4.60057,2470.707,2022-11-22T10:31:11Z
2022-11-22T08:32:16Z,42.805,6.029,13.3005,4.60054,2470.67,2022-11-22T10:34:14Z
2022-11-22T08:35:19Z,42.805,6.029,13.3011,4.60057,2470.684,2022-11-22T10:37:18Z
2022-11-22T08:38:22Z,42.805,6.029,13.3007,4.60058,2470.684,2022-11-22T10:40:21Z
2022-11-22T08:41:25Z,42.805,6.029,13.3007,4.60057,2470.661,2022-11-22T10:43:24Z
2022-11-22T08:44:28Z,42.805,6.029,13.3009,4.60056,2470.684,2022-11-22T10:46:27Z
2022-11-22T08:47:31Z,42.805,6.029,13.3005,4.60058,2470.693,2022-11-22T10:49:30Z
2022-11-22T08:50:34Z,42.805,6.029,13.3010,4.60056,2470.684,2022-11-22T10:52:33Z
2022-11-22T08:53:37Z,42.805,6.029,13.3007,4.60059,2470.646,2022-11-22T10:55:36Z
2022-11-22T08:56:40Z,42.805,6.029,13.3007,4.60060,2470.67,2022-11-22T10:58:39Z
2022-11-22T08:59:43Z,42.805,6.029,13.3006,4.60059,2470.67,2022-11-22T11:01:42Z
2022-11-22T09:02:47Z,42.805,6.029,13.3008,4.60056,2470.67,2022-11-22T11:04:45Z
2022-11-22T09:05:50Z,42.805,6.029,13.3009,4.60057,2470.67,2022-11-22T11:07:48Z
2022-11-22T09:08:53Z,42.805,6.029,13.3008,4.60056,2470.646,2022-11-22T11:10:52Z
2022-11-22T09:11:56Z,42.805,6.029,13.3006,4.60057,2470.646,2022-11-22T11:13:55Z
2022-11-22T09:14:59Z,42.805,6.029,13.3009,4.60057,2470.67,2022-11-22T11:16:58Z
2022-11-22T09:18:02Z,42.805,6.029,13.3012,4.60060,2470.646,2022-11-22T11:20:01Z
2022-11-22T09:21:05Z,42.805,6.029,13.3009,4.60059,2470.661,2022-11-22T11:23:04Z
2022-11-22T09:24:08Z,42.805,6.029,13.3010,4.60056,2470.67,2022-11-22T11:26:07Z
2022-11-22T09:27:11Z,42.805,6.029,13.3004,4.60057,2470.646,2022-11-22T11:29:10Z
2022-11-22T09:30:14Z,42.805,6.029,13.3010,4.60055,2470.661,2022-11-22T11:32:13Z
2022-11-22T09:33:17Z,42.805,6.029,13.3009,4.60056,2470.646,2022-11-22T11:35:16Z
2022-11-22T09:36:21Z,42.805,6.029,13.3010,4.60059,2470.624,2022-11-22T11:38:19Z
2022-11-22T09:39:24Z,42.805,6.029,13.3009,4.60056,2470.637,2022-11-22T11:41:22Z
2022-11-22T09:42:27Z,42.805,6.029,13.3006,4.60057,2470.637,2022-11-22T11:44:25Z
2022-11-22T09:45:30Z,42.805,6.029,13.3010,4.60058,2470.646,2022-11-22T11:47:29Z
2022-11-22T09:48:33Z,42.805,6.029,13.3009,4.60058,2470.624,2022-11-22T11:50:32Z
2022-11-22T09:51:36Z,42.805,6.029,13.3009,4.60058,2470.624,2022-11-22T11:53:35Z
2022-11-22T09:54:39Z,42.805,6.029,13.3009,4.60057,2470.661,2022-11-22T11:56:38Z
2022-11-22T09:57:42Z,42.805,6.029,13.3008,4.60058,2470.637,2022-11-22T11:59:41Z
2022-11-22T10:00:45Z,42.805,6.029,13.3011,4.60058,2470.684,2022-11-22T12:02:44Z
2022-11-22T10:03:48Z,42.805,6.029,13.3006,4.60058,2470.624,2022-11-22T12:05:47Z
2022-11-22T10:06:51Z,42.805,6.029,13.3010,4.60061,2470.624,2022-11-22T12:08:50Z
2022-11-22T10:09:54Z,42.805,6.029,13.3009,4.60058,2470.646,2022-11-22T12:11:53Z
2022-11-22T10:12:58Z,42.805,6.029,13.3006,4.60057,2470.624,2022-11-22T12:14:56Z
2022-11-22T10:16:01Z,42.805,6.029,13.3006,4.60057,2470.6,2022-11-22T12:17:59Z
2022-11-22T10:19:04Z,42.805,6.029,13.3010,4.60057,2470.661,2022-11-22T12:21:02Z
2022-11-22T10:22:07Z,42.805,6.029,13.3007,4.60056,2470.637,2022-11-22T12:24:06Z
2022-11-22T10:25:10Z,42.805,6.029,13.3009,4.60056,2470.624,2022-11-22T12:27:09Z
2022-11-22T10:28:13Z,42.805,6.029,13.3006,4.60056,2470.637,2022-11-22T12:30:12Z
2022-11-22T10:31:16Z,42.805,6.029,13.3010,4.60057,2470.6,2022-11-22T12:33:15Z
2022-11-22T10:34:19Z,42.805,6.029,13.3009,4.60057,2470.624,2022-11-22T12:36:18Z
2022-11-22T10:37:22Z,42.805,6.029,13.3009,4.60056,2470.614,2022-11-22T12:39:21Z
2022-11-22T10:40:25Z,42.805,6.029,13.3010,4.60057,2470.577,2022-11-22T12:42:24Z
2022-11-22T10:43:28Z,42.805,6.029,13.3010,4.60057,2470.6,2022-11-22T12:45:27Z
2022-11-22T10:46:31Z,42.805,6.029,13.3009,4.60056,2470.624,2022-11-22T12:48:30Z
2022-11-22T10:49:35Z,42.805,6.029,13.3005,4.60059,2470.6,2022-11-22T12:51:33Z
2022-11-22T10:52:38Z,42.805,6.029,13.3011,4.60057,2470.637,2022-11-22T12:54:36Z
2022-11-22T10:55:41Z,42.805,6.029,13.3009,4.60057,2470.6,2022-11-22T12:57:39Z
2022-11-22T10:58:44Z,42.805,6.029,13.3009,4.60057,2470.646,2022-11-22T13:00:43Z
2022-11-22T11:01:47Z,42.805,6.029,13.3009,4.60056,2470.577,2022-11-22T13:03:46Z
2022-11-22T11:04:50Z,42.805,6.029,13.3008,4.60057,2470.553,2022-11-22T13:06:49Z
2022-11-22T11:07:53Z,42.805,6.029,13.3007,4.60056,2470.577,2022-11-22T13:09:52Z
2022-11-22T11:10:56Z,42.805,6.029,13.3008,4.60057,2470.577,2022-11-22T13:12:55Z
2022-11-22T11:13:59Z,42.805,6.029,13.3010,4.60058,2470.553,2022-11-22T13:15:58Z
2022-11-22T11:17:02Z,42.805,6.029,13.3011,4.60057,2470.577,2022-11-22T13:19:01Z
2022-11-22T11:20:05Z,42.805,6.029,13.3013,4.60056,2470.577,2022-11-22T13:22:04Z
2022-11-22T11:23:08Z,42.805,6.029,13.3007,4.60056,2470.567,2022-11-22T13:25:07Z
2022-11-22T11:26:12Z,42.805,6.029,13.3011,4.60059,2470.553,2022-11-22T13:28:10Z
2022-11-22T11:29:15Z,42.805,6.029,13.3007,4.60057,2470.553,2022-11-22T13:31:13Z
2022-11-22T11:32:18Z,42.805,6.029,13.3009,4.60057,2470.577,2022-11-22T13:34:16Z
2022-11-22T11:35:21Z,42.805,6.029,13.3009,4.60056,2470.567,2022-11-22T13:37:20Z
2022-11-22T11:38:24Z,42.805,6.029,13.3007,4.60057,2470.53,2022-11-22T13:40:23Z
2022-11-22T11:41:27Z,42.805,6.029,13.3008,4.60057,2470.591,2022-11-22T13:43:26Z
2022-11-22T11:44:30Z,42.805,6.029,13.3011,4.60057,2470.53,2022-11-22T13:46:29Z
2022-11-22T11:47:33Z,42.805,6.029,13.3009,4.60056,2470.53,2022-11-22T13:49:32Z
2022-11-22T11:50:36Z,42.805,6.029,13.3011,4.60056,2470.53,2022-11-22T13:52:35Z
2022-11-22T11:53:39Z,42.805,6.029,13.3007,4.60057,2470.53,2022-11-22T13:55:38Z
2022-11-22T11:56:42Z,42.805,6.029,13.3006,4.60055,2470.53,2022-11-22T13:58:41Z
2022-11-22T11:59:45Z,42.805,6.029,13.3007,4.60057,2470.577,2022-11-22T14:01:44Z
2022-11-22T12:02:49Z,42.805,6.029,13.3009,4.60055,2470.507,2022-11-22T14:04:47Z
2022-11-22T12:05:52Z,42.805,6.029,13.3008,4.60055,2470.553,2022-11-22T14:07:50Z
2022-11-22T12:08:55Z,42.805,6.029,13.3007,4.60055,2470.507,2022-11-22T14:10:53Z
2022-11-22T12:11:58Z,42.805,6.029,13.3007,4.60056,2470.507,2022-11-22T14:13:57Z
2022-11-22T12:15:01Z,42.805,6.029,13.3011,4.60054,2470.53,2022-11-22T14:17:00Z
2022-11-22T12:18:04Z,42.805,6.029,13.3007,4.60057,2470.507,2022-11-22T14:20:03Z
2022-11-22T12:21:07Z,42.805,6.029,13.3009,4.60056,2470.53,2022-11-22T14:23:06Z
2022-11-22T12:24:10Z,42.805,6.029,13.3009,4.60057,2470.544,2022-11-22T14:26:09Z
2022-11-22T12:27:13Z,42.805,6.029,13.3009,4.60057,2470.544,2022-11-22T14:29:12Z
2022-11-22T12:30:16Z,42.805,6.029,13.3007,4.60056,2470.52,2022-11-22T14:32:15Z
2022-11-22T12:33:19Z,42.805,6.029,13.3010,4.60055,2470.483,2022-11-22T14:35:18Z
2022-11-22T12:36:22Z,42.805,6.029,13.3008,4.60057,2470.507,2022-11-22T14:38:21Z
2022-11-22T12:39:25Z,42.805,6.029,13.3006,4.60057,2470.507,2022-11-22T14:41:24Z
2022-11-22T12:42:29Z,42.805,6.029,13.3010,4.60057,2470.507,2022-11-22T14:44:27Z
2022-11-22T12:45:32Z,42.805,6.029,13.3009,4.60056,2470.52,2022-11-22T14:47:30Z
2022-11-22T12:48:35Z,42.805,6.029,13.3009,4.60056,2470.483,2022-11-22T14:50:34Z
2022-11-22T12:51:38Z,42.805,6.029,13.3011,4.60057,2470.474,2022-11-22T14:53:37Z
2022-11-22T12:54:41Z,42.805,6.029,13.3010,4.60057,2470.483,2022-11-22T14:56:40Z
2022-11-22T12:57:44Z,42.805,6.029,13.3012,4.60057,2470.507,2022-11-22T14:59:43Z
2022-11-22T13:00:47Z,42.805,6.029,13.3008,4.60056,2470.483,2022-11-22T15:02:46Z
2022-11-22T13:03:50Z,42.805,6.029,13.3011,4.60056,2470.52,2022-11-22T15:05:49Z
2022-11-22T13:06:53Z,42.805,6.029,13.3009,4.60057,2470.507,2022-11-22T15:08:52Z
2022-11-22T13:09:56Z,42.805,6.029,13.3009,4.60057,2470.483,2022-11-22T15:11:55Z
2022-11-22T13:12:59Z,42.805,6.029,13.3009,4.60054,2470.507,2022-11-22T15:14:58Z
2022-11-22T13:16:03Z,42.805,6.029,13.3009,4.60057,2470.46,2022-11-22T15:18:01Z
2022-11-22T13:19:06Z,42.805,6.029,13.3011,4.60057,2470.507,2022-11-22T15:21:04Z
2022-11-22T13:22:09Z,42.805,6.029,13.3009,4.60055,2470.46,2022-11-22T15:24:07Z
2022-11-22T13:25:12Z,42.805,6.029,13.3011,4.60057,2470.507,2022-11-22T15:27:11Z
2022-11-22T13:28:15Z,42.805,6.029,13.3007,4.60061,2470.497,2022-11-22T15:30:14Z
2022-11-22T13:31:18Z,42.805,6.029,13.3011,4.60057,2470.474,2022-11-22T15:33:17Z
2022-11-22T13:34:21Z,42.805,6.029,13.3011,4.60057,2470.52,2022-11-22T15:36:20Z
2022-11-22T13:37:24Z,42.805,6.029,13.3011,4.60057,2470.497,2022-11-22T15:39:23Z
2022-11-22T13:40:27Z,42.805,6.029,13.3011,4.60057,2470.474,2022-11-22T15:42:26Z
2022-11-22T13:43:30Z,42.805,6.029,13.3009,4.60056,2470.474,2022-11-22T15:45:29Z
2022-11-22T13:46:33Z,42.805,6.029,13.3013,4.60056,2470.497,2022-11-22T15:48:32Z
2022-11-22T13:49:36Z,42.805,6.029,13.3007,4.60055,2470.507,2022-11-22T15:51:35Z
2022-11-22T13:52:40Z,42.805,6.029,13.3009,4.60055,2470.497,2022-11-22T15:54:38Z
2022-11-22T13:55:43Z,42.805,6.029,13.3009,4.60056,2470.46,2022-11-22T15:57:41Z
2022-11-22T13:58:46Z,42.805,6.029,13.3008,4.60057,2470.46,2022-11-22T16:00:44Z
2022-11-22T14:01:49Z,42.805,6.029,13.3008,4.60057,2470.52,2022-11-22T16:03:48Z
2022-11-22T14:04:52Z,42.805,6.029,13.3009,4.60056,2470.47,2022-11-22T16:06:51Z
2022-11-22T14:07:55Z,42.805,6.029,13.3009,4.60057,2470.497,2022-11-22T16:09:54Z
2022-11-22T14:10:58Z,42.805,6.029,13.3011,4.60057,2470.46,2022-11-22T16:12:57Z
2022-11-22T14:14:01Z,42.805,6.029,13.3006,4.60057,2470.507,2022-11-22T16:16:00Z
2022-11-22T14:17:04Z,42.805,6.029,13.3009,4.60055,2470.474,2022-11-22T16:19:03Z
2022-11-22T14:20:07Z,42.805,6.029,13.3011,4.60057,2470.507,2022-11-22T16:22:06Z
2022-11-22T14:23:10Z,42.805,6.029,13.3010,4.60057,2470.483,2022-11-22T16:25:09Z
2022-11-22T14:26:13Z,42.805,6.029,13.3015,4.60058,2470.483,2022-11-22T16:28:12Z
2022-11-22T14:29:16Z,42.805,6.029,13.3014,4.60056,2470.46,2022-11-22T16:31:15Z
2022-11-22T14:32:20Z,42.805,6.029,13.3008,4.60055,2470.507,2022-11-22T16:34:18Z
2022-11-22T14:35:23Z,42.805,6.029,13.3011,4.60056,2470.52,2022-11-22T16:37:21Z
2022-11-22T14:38:26Z,42.805,6.029,13.3015,4.60056,2470.46,2022-11-22T16:40:25Z
2022-11-22T14:41:29Z,42.805,6.029,13.3012,4.60059,2470.507,2022-11-22T16:43:28Z
2022-11-22T14:44:32Z,42.805,6.029,13.3009,4.60057,2470.52,2022-11-22T16:46:31Z
2022-11-22T14:47:35Z,42.805,6.029,13.3010,4.60056,2470.507,2022-11-22T16:49:34Z
2022-11-22T14:50:38Z,42.805,6.029,13.3013,4.60057,2470.52,2022-11-22T16:52:37Z
2022-11-22T14:53:41Z,42.805,6.029,13.3007,4.60057,2470.483,2022-11-22T16:55:40Z
2022-11-22T14:56:44Z,42.805,6.029,13.3011,4.60057,2470.53,2022-11-22T16:58:43Z
2022-11-22T14:59:47Z,42.805,6.029,13.3008,4.60057,2470.53,2022-11-22T17:01:46Z
2022-11-22T15:02:50Z,42.805,6.029,13.3008,4.60057,2470.53,2022-11-22T17:04:49Z